FENGYUN 1C DEB, 31046

Orbit data source: Space-Track

FENGYUN 1C DEB, 31046 is space debris in SSO originally from a launch on Mon, 10 May 1999 UTC launched from the Taiyaun Space Center, China (TSC). Fengyun 1C debris stems from the Chinese weather satellite Fengyun-1C, which was intentionally destroyed by a Chinese anti-satellite missile in 2007. This event dramatically increased the amount of space debris, with thousands of trackable fragments posing hazards to satellites and human spaceflight. The Fengyun 1C debris cloud has become a focal point in discussions about space sustainability and the need for international regulations to prevent the creation of new debris.

Loading next visibility...
Identifier
31046, 1999-025BEQ
Orbit
SSO
Country
Flag of CNCN / PRC
Related business
Manufacturer
Unknown
Mission
Spacecraft
Bus & Motor
Unknown
Mass
Unknown
Launch date (UTC)
1999-05-10 (27 years ago)
Launch vehicle
Unknown
Launch site
Taiyaun Space Center, China (TSC)
Object type
Payload
Rocket body
Debris
Shape & HBR
Unknown shape, 0.1 m
Radar Cross Section
Medium (>0.1 m² and <1 m²)

Expand to show TLE details & history
Last TLE update: 7 hours ago

TLE from 7 hours ago
0 FENGYUN 1C DEB
1 31046U 99025BEQ 26209.10672346  .00037810  00000-0  53687-2 0  9997
2 31046  98.9636 356.2554 0037603 120.5431 292.4954 14.76318654999841
Epoch: 2026-07-28T02:33Z
TLE epoch observation values (Epoch: 2026-07-28T02:33:40.906Z)
Latitude
51.8362°
Longitude
0.53972°
Altitude
639.32 km
Speed
7.549 km/s
True Right ascension
22h 58m 57s
True Declination
51° 39' 58"
Sunlit
Object was in daylight at epoch
Visualization orbit readout
Latitude
Unknown
Longitude
Unknown
Altitude
Unknown
Speed
Unknown
Apparent Right ascension
Unknown
Apparent Declination
Unknown
Sunlit
N/A
Visualization observer readout
Local Sidereal Time
23:26:49
Azimuth
Unknown
Elevation
Unknown
Doppler factor
Unknown
Orbital elements
Apogee altitude
664.448 km
Perigee altitude
611.682 km
Semi-major axis
7,016.202 km
Eccentricity
0.00376
Inclination
98.9636°
RAAN
356.2554°
Arg. of periapsis
120.5431°
True anomaly
292.09657°
Mean anomaly
292.4954°
Eccentric anomaly
292.29606°
Mean motion
3.69309 °/min
Orbital period
97.48 mins
BSTAR
0.0053687
Loading maneuver chart data...
Computing Atmospheric mass density...

Documentation

Showing up to 5 results
|